User: anonymous   Login
Location: Owatonna
(44.0840°N, 93.2260°W)
Time: 17:34:30
(UTC-05:00)
Language:

Cosmos 1500 Rocket - Orbit

View from above orbital plane
View from above orbital plane
View from above satellite
View from above satellite

Ground track
Ground track

The orbit data is extracted from the following two-line orbital elements,

1 14373U 83099B   16120.81152407 +.00000180 +00000-0 +18847-4 0  9996
2 14373 082.5396 270.8277 0021093 147.2759 326.4227 14.83601918738483
Epoch (UTC): 29 April 2016 19:28:35
Eccentricity: 0.0021093
inclination: 82.5396°
perigee height: 603 km
apogee height: 633 km
right ascension of ascending node: 270.8277°
argument of perigee: 147.2759°
revolutions per day: 14.83601918
mean anomaly at epoch: 326.4227°
orbit number at epoch: 73848

The dashed part of the orbit path shows where the satellite is in the earth's shadow,  

DLR